Regional Weather Roundup
Issued by NWS

Home | Current Version | Previous Version | Graphics & Text | Print | Product List | Glossary Off
Versions: 1 2 3 4 5 6 7 8 9 10 11 12 13 14 15 16 17 18 19 20 21 22 23 24 25 26 27 28 29 30 31 32 33 34 35 36 37 38 39 40 41 42 43 44 45 46 47 48 49 50

000
ASUS43 KDMX 251104
RWRIA

WEATHER ROUNDUP FOR IOWA
NATIONAL WEATHER SERVICE DES MOINES IA
  ISSUED BY NWS QUAD CITIES IA IL
500 AM CST SUN JAN 25 2015

NOTE: "FAIR" INDICATES FEW OR NO CLOUDS BELOW 12,000 FEET WITH NO
SIGNIFICANT WEATHER AND/OR OBSTRUCTIONS TO VISIBILITY.

* - THESE STATIONS ARE NOT NWS STATIONS...THUS NOT UNDER NWS
QUALITY CONTROL.  THEY ALSO DO NOT REPORT WEATHER SUCH
AS PRECIPITATION OR FOG.

IAZ001>003-012>014-020>022-031>034-043>046-251200-
   NORTHWEST IOWA

CITY           SKY/WX    TMP DP  RH WIND       PRES   REMARKS
CARROLL *      LGT SNOW  34  34 100 N17       29.66R WCI  23
CHEROKEE *     MIX PCPN  33  33 100 N13G24    29.73R WCI  24
DENNISON *     LGT SNOW  34  34 100 N14G21    29.68R WCI  24
LE MARS *      CLOUDY    34  34 100 N17G24    29.78R WCI  23
ORANGE CITY *  FLURRIES  36  32  87 N12       29.76R WCI  27
SHELDON *      CLOUDY    34  34 100 N18       29.75R WCI  23
SIOUX CITY     LGT SNOW  34  32  92 N18       29.78R FOG     WCI  23
SPENCER        LGT SNOW  34  31  88 N16       29.74R FOG     WCI  24
STORM LAKE *   LGT SNOW  34  32  93 N20G26    29.70R WCI  22
$$

IAZ055>058-069>071-079>083-090>094-251200-
   SOUTHWEST IOWA

CITY           SKY/WX    TMP DP  RH WIND       PRES   REMARKS
ATLANTIC *     FLURRIES  34  34 100 NW17G24   29.66R WCI  23
AUDUBON *      LGT SNOW  34  30  86 NW12      29.66R WCI  25
CLARINDA *     CLOUDY    41  37  87 NW20G28   29.64R WCI  32
COUNCIL BLFS * LGT SNOW  34  34 100 NW17G29   29.69R WCI  23
CRESTON *      LGT RAIN  37  37 100 N20G26    29.59R WCI  27
HARLAN *       LGT SNOW  34  34 100 NW21G26   29.71R WCI  22
LAMONI         CLOUDY    42  38  85 NW13      29.56R WCI  35
RED OAK *      CLOUDY    39  36  87 N20G29    29.65R WCI  30
SHENANDOAH *   MIX PCPN  39  37  93 NW20G28   29.67R WCI  30
$$

IAZ047>049-059>061-072>074-084-251200-
   CENTRAL IOWA

CITY           SKY/WX    TMP DP  RH WIND       PRES   REMARKS
AMES           CLOUDY    36  33  89 N9        29.61R WCI  29
ANKENY *       CLOUDY    37  36  93 N8        29.59R WCI  31
BOONE *        CLOUDY    34  34 100 N9        29.60R WCI  26
CHARITON *     LGT RAIN  39  39 100 NW7       29.54R WCI  34
DES MOINES     CLOUDY    40  36  86 N7        29.59R WCI  35
GRINNELL *     RAIN      37  35  94 N8        29.57S WCI  30
KNOXVILLE *    CLOUDY    39  37  93 NE6       29.54R FOG     WCI  35
MARSHALLTOWN   LGT RAIN  36  34  92 NE13      29.58R WCI  27
NEWTON *       LGT RAIN  37  36  93 NE10      29.57R WCI  30
PELLA *        DRIZZLE   38  37  97 NE5       29.57S WCI  34
PERRY *          N/A     35  35 100 NW12      29.63R FOG     WCI  26
$$

IAZ004>006-015-016-023>025-035-036-251200-
   NORTH CENTRAL IOWA

CITY           SKY/WX    TMP DP  RH WIND       PRES   REMARKS
ALGONA *       LGT RAIN  34  34 100 NE17G25   29.70R WCI  23
CLARION *      LGT SNOW  34  34 100 NE17      29.65R WCI  23
ESTHERVILLE    LGT SNOW  32  31  96 N18       29.73R FOG     WCI  20
FORT DODGE *   CLOUDY    36  32  87 N10       29.66R WCI  28
MASON CITY     LGT SNOW  33  31  92 NE18      29.68R FOG     WCI  22
FOREST CITY *  LGT SNOW  34  32  93 N15G21    29.68R WCI  24
WEBSTER CITY * FLURRIES  34  34 100 N12       29.62R WCI  25
IOWA FALLS *   FLURRIES  33  32  96 N10       29.63R WCI  25
$$

IAZ007>011-017>019-026>030-037>042-050>054-066-251200-
   NORTHEAST IOWA

CITY           SKY/WX    TMP DP  RH WIND       PRES   REMARKS
CEDAR RAPIDS   LGT RAIN  35  34  96 NE16      29.59R FOG     WCI  25
CHARLES CITY * LGT SNOW  34  34 100 NE15      29.67R WCI  24
CLINTON *      CLOUDY    34  30  86 E16       29.66R WCI  23
DECORAH *      FLURRIES  34  32  93 NE12G18   29.69R WCI  25
DUBUQUE        CLOUDY    33  30  88 E13       29.65R WCI  24
MONTICELLO *   CLOUDY    36  36 100 NE9       29.63R WCI  29
OELWEIN *      CLOUDY    34  32  93 E16G23    29.64R WCI  23
WATERLOO       CLOUDY    34  33  96 E14       29.63R WCI  25
$$

IAZ064-065-067-068-078-251200-
   EAST CENTRAL IOWA

CITY           SKY/WX    TMP DP  RH WIND       PRES   REMARKS
DAVENPORT      CLOUDY    34  31  88 E15       29.62R FOG     WCI  24
IOWA CITY      LGT RAIN  36  34  92 NE8       29.60R WCI  30
MT. PLEASANT * RAIN      38  38 100 CALM      29.56S VSB 1
MUSCATINE *    CLOUDY    34  32  93 NE6       29.59R WCI  29
QUAD CITIES    MIX PCPN  35  32  88 E12       29.60R WCI  27
$$

IAZ062-063-075>077-085>089-095>099-251200-
   SOUTHEAST IOWA

CITY           SKY/WX    TMP DP  RH WIND       PRES   REMARKS
BURLINGTON     LGT RAIN  39  39 100 CALM      29.56R FOG
FAIRFIELD *    LGT RAIN  37  37 100 CALM      29.56S
FORT MADISON * DRIZZLE   41  39  93 S5        29.57S WCI  38
KEOKUK *       LGT RAIN  39  37  93 CALM      29.56S
OSKALOOSA *    LGT RAIN  37  37  98 E3        29.56R
OTTUMWA        LGT RAIN  38  38 100 NE6       29.55S FOG     WCI  33
WASHINGTON *   LGT RAIN  39  39 100 NE7       29.57R WCI  34
$$

ABBREVIATIONS USED IN REMARKS
   TC - TEMPERATURES IN CELSIUS
  WCI - WIND CHILL INDEX
   HX - HEAT INDEX
  VSB - VISIBILITY
$$


USA.gov is the U.S. government's official web portal to all federal, state and local government web resources and services.